Meteo Giornale » Osservazioni meteo Stati Uniti (USA) » Monett

ore: 15:55 - Osservazioni Meteo Monett
Lat. 36° 54' N Lon. 94° 1' W Alt. 401 metri s.l.m.

sereno

37 °C

Sereno

Temp. 24 Ore

24 °C

37 °C

Ovest

13 Km/h

Dew point 15 °C

Umidità 27 %

Visibilità  10 Km

Il sole sorge alle ore 06:46

Il sole tramonta alle ore 19:46

Data e Ora Cielo e Fenomeni T °C DP °C Um. % Pres. hPa Vis. km Vento km/h
Oggi h: 15:55 sereno Sereno 37 15 27 1016 10 O 13
Oggi h: 15:35 nuvoloso Nuvoloso 37 15 27 1016 10 SO 7.4
Oggi h: 15:15 nuvoloso Nuvoloso 36 15 28 1016 10 SO 20.3
Oggi h: 14:55 nuvoloso Nuvoloso 36 15 28 1017 10 S 9.3
Oggi h: 14:35 nuvoloso Nuvoloso 36 15 28 1017 10 S/SO 16.7
Oggi h: 14:15 nuvoloso Nuvoloso 36 15 28 1017 10 S/SO 7.4
Oggi h: 13:55 nuvoloso Nuvoloso 36 15 28 1017 10 S/SO 11.1
Oggi h: 13:35 nuvoloso Nuvoloso 35 15 30 1017 10 O/SO 18.5
Oggi h: 13:15 nuvoloso Nuvoloso 36 15 28 1018 10 O/SO 9.3
Oggi h: 12:55 nuvoloso Nuvoloso 36 13 25 1018 10 SO 13
Oggi h: 12:35 nuvoloso Nuvoloso 35 15 30 1018 10 S 14.8
Oggi h: 12:15 sereno Sereno 35 17 34 1018 10 N 5.5
Oggi h: 11:55 sereno Sereno 34 17 36 1019 10 O/SO 13
Oggi h: 11:35 sereno Sereno 33 17 38 1019 10 O/SO 18.5
Oggi h: 11:15 sereno Sereno 33 18 41 1019 10 SO 14.8
Oggi h: 10:55 sereno Sereno 32 18 43 1019 10 O/SO 16.7
Oggi h: 10:35 sereno Sereno 32 18 43 1019 10 SO 20.3
Oggi h: 10:15 sereno Sereno 31 18 45 1018 10 SO 18.5
Oggi h: 09:55 sereno Sereno 31 18 45 1018 10 S/SO 18.5
Oggi h: 09:35 sereno Sereno 30 18 48 1018 10 S/SO 24
Oggi h: 09:15 sereno Sereno 30 18 48 1018 10 S/SO 22.2
Oggi h: 08:55 sereno Sereno 28 18 54 1018 10 S/SO 22.2
Oggi h: 08:35 sereno Sereno 28 17 51 1018 10 S/SO 22.2
Oggi h: 08:15 sereno Sereno 27 17 54 1018 10 S 16.7
Oggi h: 07:55 sereno Sereno 26 17 57 1018 10 S 14.8
Oggi h: 07:35 sereno Sereno 25 17 61 1018 10 S 11.1
Oggi h: 07:15 sereno Sereno 25 16 57 1017 10 S 11.1
Oggi h: 06:55 sereno Sereno 25 16 57 1017 10 S 11.1
Oggi h: 06:35 sereno Sereno 25 16 57 1017 10 S 11.1
Oggi h: 06:15 sereno Sereno 25 16 57 1017 10 S 13
Oggi h: 05:55 sereno Sereno 25 16 57 1017 10 S 13
Oggi h: 05:35 sereno Sereno 25 16 57 1017 10 S 14.8
Oggi h: 05:15 sereno Sereno 25 16 57 1016 10 S 11.1
Oggi h: 04:55 sereno Sereno 25 16 57 1016 10 S 13
Oggi h: 04:35 sereno Sereno 24 15 57 1016 10 S 11.1
Oggi h: 04:15 sereno Sereno 24 15 57 1016 10 S/SE 11.1
Oggi h: 03:55 sereno Sereno 24 15 57 1016 10 S/SE 11.1
Oggi h: 03:35 sereno Sereno 25 15 53 1016 10 S/SE 9.3
Oggi h: 03:15 sereno Sereno 25 15 53 1016 10 S/SE 11.1
Oggi h: 02:55 sereno Sereno 25 15 53 1016 10 S 13
Oggi h: 02:35 sereno Sereno 25 15 53 1016 10 S/SE 13
Oggi h: 02:15 sereno Sereno 26 15 50 1016 10 S/SE 13
Oggi h: 01:55 sereno Sereno 25 15 53 1016 10 S/SE 13
Oggi h: 01:35 sereno Sereno 26 15 50 1016 10 S/SE 14.8
Oggi h: 01:15 sereno Sereno 25 16 57 1016 10 S 11.1
Oggi h: 00:55 sereno Sereno 25 16 57 1016 10 S/SE 9.3
Oggi h: 00:35 sereno Sereno 26 16 54 1016 10 S/SE 13
Oggi h: 00:15 sereno Sereno 26 16 54 1016 10 S/SE 13
Ieri h: 23:55 sereno Sereno 26 16 54 1016 10 S/SE 11.1
Ieri h: 23:35 sereno Sereno 27 16 50 1016 10 S/SE 13
Ieri h: 23:15 sereno Sereno 27 17 54 1016 10 S/SE 9.3
Ieri h: 22:55 sereno Sereno 27 17 54 1016 10 S/SE 11.1
Ieri h: 22:35 sereno Sereno 27 17 54 1015 10 S/SE 13
Ieri h: 22:15 sereno Sereno 27 16 50 1015 10 SE 9.3
Ieri h: 21:55 sereno Sereno 28 16 48 1015 10 SE 11.1
Ieri h: 21:35 sereno Sereno 27 15 47 1015 10 SE 9.3
Ieri h: 21:15 sereno Sereno 28 15 45 1015 10 SE 7.4
Ieri h: 20:55 sereno Sereno 29 15 42 1015 10 SE 7.4
Ieri h: 20:35 sereno Sereno 30 15 40 1014 10 S/SE 7.4
Ieri h: 20:15 sereno Sereno 31 15 37 1014 10 SE 7.4
Ieri h: 19:55 sereno Sereno 32 14 33 1014 10 S/SE 9.3
Ieri h: 19:35 sereno Sereno 33 14 31 1014 10 S/SE 7.4
Ieri h: 19:15 sereno Sereno 34 14 30 1014 10 S/SE 13
Ieri h: 18:55 sereno Sereno 35 14 28 1014 10 S/SE 9.3
Ieri h: 18:35 sereno Sereno 35 14 28 1014 10 S/SE 16.7
Ieri h: 18:15 nuvoloso Nuvoloso 36 14 26 1014 10 S/SE 20.3
Ieri h: 17:55 sereno Sereno 36 14 26 1014 10 S 18.5
Ieri h: 17:35 sereno Sereno 37 13 23 1014 10 S/SO 18.5
Ieri h: 17:15 nuvoloso Nuvoloso 36 13 25 1014 10 S 11.1
Ieri h: 16:55 nuvoloso Nuvoloso 36 14 26 1014 10 S 14.8
Ieri h: 16:35 nuvoloso Nuvoloso 37 14 25 1014 10 S/SE 20.3